User: anonymous   Login
Location: Mentone
(34.5413°N, 85.5351°W)
Time: 23:10:28
(UTC-05:00)
Language:

ADEOS Rocket - Orbit

View from above orbital plane
View from above orbital plane
View from above satellite
View from above satellite

Ground track
Ground track

The orbit data is extracted from the following two-line orbital elements,

1 24279U 96046C   16178.08493613  .00000002  00000-0  44881-4 0  9997
2 24279  98.7020 160.9535 0301074 116.8085 288.4087 13.47052581976303
Epoch (UTC): 26 June 2016 02:02:18
Eccentricity: 0.0301074
inclination: 98.7020°
perigee height: 858 km
apogee height: 1308 km
right ascension of ascending node: 160.9535°
argument of perigee: 116.8085°
revolutions per day: 13.47052581
mean anomaly at epoch: 288.4087°
orbit number at epoch: 97630

The dashed part of the orbit path shows where the satellite is in the earth's shadow,  

DLR